Clearfield, PA

4:26 AM EDT on July 23, 2017 (GMT -0400)
Clearfield-Lawrence

Weather History for KFIG - July, 2013

Change the Weather History Date:

Monday, July 1, 2013

  Actual Average (KDUJ) Record (KDUJ)
Temperature  
Mean Temperature 66 °F -  
Max Temperature 70 °F 76 °F 91 °F (1963)
Min Temperature 62 °F 57 °F 41 °F (1988)
Growing Degree Days 16 (Base 50)    
Moisture  
Dew Point 63 °F    
Average Humidity 93    
Maximum Humidity 100    
Minimum Humidity 83    
Precipitation  
Precipitation 0.97 in - - ()
Sea Level Pressure  
Sea Level Pressure 29.95 in    
Wind  
Wind Speed 4 mph (NE)    
Max Wind Speed 9 mph    
Max Gust Speed -    
Visibility 7 miles    
Events Fog , Rain , Thunderstorm    
Averages and records for this station are not official NWS values.
T = Trace of Precipitation, MM = Missing Value Source: NWS Daily Summary

Daily Weather History Graph

Daily Weather History Graph

Search for Another Location

Airport or City:

Trip Planner

Search our weather history database for the weather conditions in past years. The results will help you decide how hot, cold, wet, or windy it might be!

Date:

Astronomy

Jul. 01, 2013 Rise Set
Actual Time 5:45 AM EDT 8:49 PM EDT
Civil Twilight 5:11 AM EDT 9:23 PM EDT
Nautical Twilight 4:28 AM EDT 10:05 PM EDT
Astronomical Twilight 3:38 AM EDT 10:56 PM EDT
Moon 1:15 AM EDT (7/1) 3:01 PM EDT (7/1)
Length of Visible Light 16h 11m
Length of Day
15h 04m
Waning Crescent, 35% of the Moon is Illuminated
Jul 1
Waning Crescent
Jul 8
New
Jul 15
First Quarter
Jul 22
Full
Jul 29
Last Quarter

Hourly Weather History & Observations

Time (EDT) Temp. Dew Point Humidity Pressure Visibility Wind Dir Wind Speed Gust Speed Precip Events Conditions
12:54 AM 66.0 °F 62.1 °F 87% 29.88 in 10.0 mi NNE 3.5 mph - N/A   Mostly Cloudy
1:54 AM 64.9 °F 62.1 °F 90% 29.89 in 10.0 mi NE 4.6 mph - N/A   Mostly Cloudy
2:54 AM 64.9 °F 62.1 °F 90% 29.86 in 10.0 mi North 4.6 mph - N/A   Mostly Cloudy
3:54 AM 64.9 °F 62.1 °F 90% 29.87 in 10.0 mi NE 3.5 mph - N/A   Mostly Cloudy
4:01 AM 64.4 °F 62.6 °F 94% 29.90 in 10.0 mi NE 3.5 mph - N/A   Mostly Cloudy
4:40 AM 64.4 °F 62.6 °F 94% 29.91 in 10.0 mi ENE 5.8 mph - 0.00 in Rain Light Rain
4:54 AM 64.9 °F 63.0 °F 93% 29.89 in 10.0 mi Calm Calm - 0.00 in Rain Light Rain
5:14 AM 64.4 °F 62.6 °F 94% 29.92 in 7.0 mi NNE 4.6 mph - 0.01 in Rain Light Rain
5:54 AM 64.0 °F 63.0 °F 96% 29.89 in 9.0 mi NNE 3.5 mph - 0.02 in   Overcast
6:21 AM 64.4 °F 62.6 °F 94% 29.92 in 6.0 mi NNE 3.5 mph - 0.00 in Rain , Thunderstorm Light Rain
6:36 AM 64.4 °F 62.6 °F 94% 29.92 in 4.0 mi Calm Calm - 0.02 in Rain Rain
6:43 AM 64.4 °F 62.6 °F 94% 29.93 in 2.5 mi East 4.6 mph - 0.09 in Rain Heavy Rain
6:54 AM 64.0 °F 63.0 °F 96% 29.91 in 2.0 mi Calm Calm - 0.19 in Rain Heavy Rain
7:03 AM 64.4 °F 62.6 °F 94% 29.93 in 0.8 mi Calm Calm - 0.14 in Rain Heavy Rain
7:15 AM 64.4 °F 62.6 °F 94% 29.94 in 1.5 mi NNE 5.8 mph - 0.20 in Rain Heavy Rain
7:21 AM 64.4 °F 62.6 °F 94% 29.93 in 0.2 mi North 5.8 mph - 0.21 in Fog , Rain Rain
7:42 AM 64.4 °F 64.4 °F 100% 29.93 in 1.2 mi NE 5.8 mph - 0.23 in Rain Light Rain
7:46 AM 64.4 °F 64.4 °F 100% 29.93 in 3.0 mi NNE 5.8 mph - 0.23 in Rain Light Rain
7:54 AM 64.9 °F 64.0 °F 97% 29.91 in 5.0 mi NE 5.8 mph - 0.23 in Rain Light Rain
8:14 AM 64.4 °F 64.4 °F 100% 29.94 in 4.0 mi NNE 4.6 mph - 0.00 in   Overcast
8:35 AM 66.2 °F 64.4 °F 94% 29.94 in 10.0 mi NE 9.2 mph - 0.00 in   Overcast
8:54 AM 64.9 °F 64.0 °F 97% 29.92 in 10.0 mi ENE 9.2 mph - 0.00 in   Overcast
9:54 AM 64.0 °F 62.1 °F 93% 29.94 in 4.0 mi NE 8.1 mph - 0.03 in Rain Light Rain
10:16 AM 64.4 °F 62.6 °F 94% 29.96 in 2.5 mi Calm Calm - 0.04 in Rain Heavy Rain
10:30 AM 64.4 °F 62.6 °F 94% 29.96 in 6.0 mi NE 5.8 mph - 0.06 in Rain Light Rain
10:44 AM 64.4 °F 62.6 °F 94% 29.97 in 1.8 mi Calm Calm - 0.10 in Rain Rain
10:54 AM 63.0 °F 62.1 °F 97% 29.96 in 1.0 mi Calm Calm - 0.21 in Rain Heavy Rain
11:07 AM 62.6 °F 62.6 °F 100% 29.97 in 2.0 mi East 5.8 mph - 0.05 in Rain Rain
11:16 AM 62.6 °F 62.6 °F 100% 29.98 in 1.5 mi East 6.9 mph - 0.10 in Rain Heavy Rain
11:23 AM 62.6 °F 60.8 °F 94% 29.98 in 2.5 mi East 6.9 mph - 0.12 in Rain Rain
11:30 AM 62.6 °F 60.8 °F 94% 29.98 in 1.8 mi East 6.9 mph - 0.16 in Rain Heavy Rain
11:46 AM 62.6 °F 60.8 °F 94% 29.98 in 3.0 mi ENE 5.8 mph - 0.20 in Rain Light Rain
11:54 AM 63.0 °F 62.1 °F 97% 29.97 in 6.0 mi East 4.6 mph - 0.21 in Rain Light Rain
12:23 PM 64.4 °F 62.6 °F 94% 29.98 in 10.0 mi NE 6.9 mph - 0.00 in Rain Light Rain
12:37 PM 64.4 °F 62.6 °F 94% 29.97 in 9.0 mi NE 8.1 mph - 0.00 in Rain Light Rain
12:54 PM 64.9 °F 62.1 °F 90% 29.96 in 10.0 mi NNE 6.9 mph - 0.00 in   Overcast
1:52 PM 66.2 °F 62.6 °F 88% 29.96 in 10.0 mi North 4.6 mph - 0.02 in   Overcast
1:54 PM 66.0 °F 63.0 °F 90% 29.94 in 10.0 mi North 4.6 mph - 0.02 in   Overcast
2:22 PM 66.2 °F 62.6 °F 88% 29.97 in 10.0 mi North 5.8 mph - 0.00 in   Overcast
2:54 PM 64.9 °F 63.0 °F 93% 29.95 in 4.0 mi North 6.9 mph - 0.01 in Rain Light Rain
3:03 PM 64.4 °F 62.6 °F 94% 29.97 in 9.0 mi North 4.6 mph - 0.00 in Rain Light Rain
3:46 PM 66.2 °F 62.6 °F 88% 29.97 in 10.0 mi NNE 9.2 mph - 0.00 in   Overcast
3:54 PM 68.0 °F 63.0 °F 84% 29.95 in 10.0 mi NNE 6.9 mph - 0.00 in   Overcast
4:54 PM 68.0 °F 64.0 °F 87% 29.94 in 10.0 mi ENE 4.6 mph - 0.01 in   Overcast
5:54 PM 68.0 °F 64.0 °F 87% 29.95 in 10.0 mi East 5.8 mph - N/A   Overcast
6:22 PM 69.8 °F 64.4 °F 83% 29.96 in 10.0 mi East 8.1 mph - N/A   Mostly Cloudy
6:54 PM 69.1 °F 64.0 °F 84% 29.96 in 10.0 mi Variable 5.8 mph - N/A   Mostly Cloudy
7:02 PM 69.8 °F 64.4 °F 83% 29.98 in 10.0 mi ESE 5.8 mph - N/A   Mostly Cloudy
7:54 PM 68.0 °F 64.9 °F 90% 29.97 in 10.0 mi NE 5.8 mph - N/A   Overcast
8:02 PM 68.0 °F 64.4 °F 88% 29.99 in 10.0 mi NE 5.8 mph - N/A   Overcast
8:54 PM 66.9 °F 64.9 °F 93% 29.98 in 10.0 mi Calm Calm - N/A   Overcast
9:24 PM 66.2 °F 64.4 °F 94% 29.99 in 10.0 mi NNE 3.5 mph - N/A   Overcast
9:54 PM 66.9 °F 64.9 °F 93% 29.99 in 10.0 mi Calm Calm - N/A   Overcast
10:01 PM 66.2 °F 64.4 °F 94% 30.01 in 2.5 mi Calm Calm - 0.03 in Rain Heavy Rain
10:08 PM 66.2 °F 64.4 °F 94% 30.01 in 6.0 mi NE 4.6 mph - 0.04 in Rain , Thunderstorm Light Rain
10:29 PM 66.2 °F 64.4 °F 94% 30.01 in 10.0 mi NE 3.5 mph - 0.04 in   Overcast
10:54 PM 66.9 °F 64.9 °F 93% 29.99 in 10.0 mi ENE 4.6 mph - 0.04 in   Overcast
11:54 PM 66.9 °F 64.9 °F 93% 30.00 in 3.0 mi Calm Calm - N/A   Overcast